GW6315 Weather Reports


time (UTC)temp
C
wind
direction
speed
KPH
gust
KPH
rain 1hr
cm
rain 24hr
cm
rain mn
cm
humidity
%
barometer
mb
20260506105910 24 208 1.6 4.8 0.00 0.00 0.00 94 1009.8
20260506105406 24 208 4.8 4.8 0.00 0.00 0.00 94 1009.7
20260506104904 24 245 3.2 4.8 0.00 0.00 0.00 94 1009.5
20260506104401 24 220 3.2 8.0 0.00 0.00 0.00 94 1009.6
20260506103859 24 229 6.4 6.4 0.00 0.00 0.00 94 1009.4
20260506103356 24 245 3.2 6.4 0.00 0.00 0.00 94 1009.5
20260506102853 24 230 1.6 9.7 0.00 0.00 0.00 94 1009.7
20260506102351 24 174 3.2 6.4 0.00 0.00 0.00 94 1009.6
20260506101848 24 225 3.2 6.4 0.00 0.00 0.00 94 1009.4
20260506101344 24 215 4.8 6.4 0.00 0.00 0.00 94 1009.6
20260506100842 24 125 3.2 8.0 0.00 0.00 0.00 94 1009.5
20260506100340 24 237 3.2 3.2 0.00 0.00 0.00 94 1009.4
20260506095838 24 213 4.8 8.0 0.00 0.00 0.00 94 1009.6
20260506095335 24 159 1.6 6.4 0.00 0.00 0.00 94 1009.5
20260506094832 24 196 0.0 8.0 0.00 0.00 0.00 94 1009.6
20260506094331 24 144 3.2 6.4 0.00 0.00 0.00 94 1009.7
20260506093829 24 181 3.2 6.4 0.00 0.00 0.00 94 1009.5
20260506093326 24 115 3.2 6.4 0.00 0.00 0.00 94 1009.4
20260506092823 24 185 8.0 11.3 0.00 0.00 0.00 94 1009.4
20260506092321 24 232 3.2 9.7 0.00 0.00 0.00 94 1009.6
20260506091818 24 187 3.2 6.4 0.00 0.00 0.00 94 1009.6
20260506091315 24 209 3.2 4.8 0.00 0.00 0.00 94 1009.4
20260506090813 24 216 1.6 4.8 0.00 0.00 0.00 94 1009.6
20260506090310 24 207 3.2 6.4 0.00 0.00 0.00 94 1009.7
20260506085807 24 77 1.6 6.4 0.00 0.00 0.00 94 1009.9
20260506085305 24 230 0.0 6.4 0.00 0.00 0.00 94 1009.9
20260506084759 24 312 0.0 3.2 0.00 0.00 0.00 94 1009.8
20260506084256 24 209 3.2 6.4 0.00 0.00 0.00 94 1009.9
20260506083753 24 221 1.6 4.8 0.00 0.00 0.00 94 1010.0
20260506083251 24 203 0.0 3.2 0.00 0.00 0.00 94 1009.9
20260506082748 24 203 3.2 4.8 0.00 0.00 0.00 94 1010.0
20260506082243 24 261 4.8 4.8 0.00 0.00 0.00 93 1009.8
20260506081741 24 232 1.6 6.4 0.00 0.00 0.00 93 1010.1
20260506081238 24 224 3.2 4.8 0.00 0.00 0.00 93 1009.7
20260506080737 24 300 3.2 6.4 0.00 0.00 0.00 93 1010.0
20260506080232 24 225 3.2 4.8 0.00 0.00 0.00 93 1009.9
20260506073217 24 244 1.6 4.8 0.00 0.00 0.00 93 1010.3
20260506072713 24 177 1.6 9.7 0.00 0.00 0.00 93 1010.1
20260506072211 24 231 3.2 6.4 0.00 0.00 0.00 93 1010.3
20260506071708 24 243 3.2 6.4 0.00 0.00 0.00 93 1010.3
20260506071206 24 207 6.4 6.4 0.00 0.00 0.00 92 1010.4
20260506070703 24 229 4.8 6.4 0.00 0.00 0.00 93 1010.1
20260506070200 24 213 3.2 6.4 0.00 0.00 0.00 92 1010.3
20260506062137 24 228 1.6 8.0 0.00 0.00 0.00 92 1010.2
20260506061632 24 184 3.2 9.7 0.00 0.00 0.00 92 1010.2
20260506061131 24 209 3.2 8.0 0.00 0.00 0.00 92 1010.2
20260506060629 24 191 6.4 11.3 0.00 0.00 0.00 92 1010.0
20260506060125 24 236 3.2 8.0 0.00 0.00 0.00 91 1010.0
20260506051057 24 230 6.4 9.7 0.00 0.00 0.00 91 1010.3
20260506050555 24 190 6.4 8.0 0.00 0.00 0.00 91 1010.2
20260506045046 24 244 4.8 9.7 0.00 0.00 0.00 91 1010.3
20260506044544 24 258 6.4 9.7 0.00 0.00 0.00 91 1010.5
20260506044040 24 179 6.4 6.4 0.00 0.00 0.00 90 1010.6
20260506043537 24 228 3.2 14.5 0.00 0.00 0.00 90 1010.7
20260506043036 24 141 4.8 9.7 0.00 0.00 0.00 90 1010.7
20260506042534 24 202 3.2 8.0 0.00 0.00 0.00 90 1010.1
20260506042032 25 148 0.0 12.9 0.00 0.00 0.00 90 1010.4
20260506041531 24 216 4.8 8.0 0.00 0.00 0.00 90 1010.3
20260506041027 25 216 4.8 9.7 0.00 0.00 0.00 90 1010.3
20260506040525 25 220 9.7 14.5 0.00 0.00 0.00 90 1010.4
20260506040020 24 242 3.2 11.3 0.00 0.00 0.00 90 1010.2
20260506035518 24 218 6.4 14.5 0.00 0.00 0.00 90 1010.5
20260506035014 24 216 6.4 9.7 0.00 0.00 0.00 90 1010.2
20260506034512 24 229 3.2 12.9 0.00 0.00 0.00 90 1010.4
20260506034009 24 218 6.4 14.5 0.00 0.00 0.00 90 1010.2
20260506033506 24 304 3.2 8.0 0.00 0.00 0.00 91 1010.1
20260506033002 24 218 3.2 8.0 0.00 0.00 0.00 91 1009.9
20260506032500 24 166 3.2 8.0 0.00 0.00 0.00 91 1010.0
20260506031956 24 234 3.2 11.3 0.00 0.00 0.00 91 1010.1
20260506031454 24 131 3.2 14.5 0.00 0.00 0.00 91 1009.9
20260506030951 24 240 3.2 6.4 0.00 0.00 0.00 91 1009.9
20260506030449 24 217 1.6 8.0 0.00 0.00 0.00 91 1010.0
20260506025946 24 328 4.8 8.0 0.00 0.00 0.00 91 1009.8
20260506025443 24 209 3.2 9.7 0.00 0.00 0.00 91 1009.8
20260506024939 24 222 4.8 9.7 0.00 0.00 0.00 91 1009.6
20260506024436 24 223 3.2 9.7 0.00 0.00 0.00 91 1009.5
20260506023932 24 275 3.2 11.3 0.00 0.00 0.00 90 1009.4
20260506023429 24 193 3.2 9.7 0.00 0.00 0.00 90 1009.4
20260506022926 25 202 4.8 8.0 0.00 0.00 0.00 90 1009.7
20260506022424 25 219 4.8 6.4 0.00 0.00 0.00 90 1009.5
20260506021921 25 121 3.2 17.7 0.00 0.00 0.00 90 1009.1
20260506021418 25 209 4.8 9.7 0.00 0.00 0.00 89 1009.2
20260506020915 25 169 3.2 6.4 0.00 0.00 0.00 89 1009.2
20260506020413 25 192 8.0 8.0 0.00 0.00 0.00 89 1009.2
20260506015910 25 196 4.8 11.3 0.00 0.00 0.00 89 1009.1
20260506015408 25 212 3.2 9.7 0.00 0.00 0.00 89 1009.0
20260506014904 25 166 3.2 9.7 0.00 0.00 0.00 89 1008.9
20260506014401 25 206 6.4 14.5 0.00 0.00 0.00 88 1008.7
20260506013858 25 141 4.8 9.7 0.00 0.00 0.00 88 1008.9
20260506013356 25 163 4.8 11.3 0.00 0.00 0.00 88 1009.0
20260506012851 25 203 8.0 11.3 0.00 0.00 0.00 88 1009.3
20260506012348 25 146 1.6 11.3 0.00 0.00 0.00 88 1008.9
20260506011846 25 210 6.4 8.0 0.00 0.00 0.00 88 1008.9
20260506011342 25 207 4.8 12.9 0.00 0.00 0.00 88 1009.0
20260506010840 25 220 6.4 8.0 0.00 0.00 0.00 87 1009.0
20260506010338 25 169 6.4 9.7 0.00 0.00 0.00 87 1008.7
20260506005834 25 264 3.2 6.4 0.00 0.00 0.00 87 1008.8
20260506005331 25 92 6.4 16.1 0.00 0.00 0.00 87 1008.5
20260506004827 25 169 4.8 9.7 0.00 0.00 0.00 87 1008.6
20260506004325 25 121 6.4 19.3 0.00 0.00 0.00 87 1008.2
20260506003821 25 226 6.4 8.0 0.00 0.00 0.00 86 1008.5
20260506003317 25 207 6.4 9.7 0.00 0.00 0.00 86 1008.5
20260506002813 25 138 6.4 12.9 0.00 0.00 0.00 86 1008.3
20260506002310 25 188 8.0 9.7 0.00 0.00 0.00 86 1008.4
20260506001806 25 177 3.2 12.9 0.00 0.00 0.00 86 1008.8
20260506001303 25 194 3.2 19.3 0.00 0.00 0.00 86 1008.6
20260506000800 25 191 3.2 9.7 0.00 0.00 0.00 86 1008.6
20260506000258 26 168 3.2 11.3 0.00 0.00 0.00 85 1008.8
20260505235754 26 216 9.7 9.7 0.00 0.00 0.00 85 1008.6
20260505235252 26 224 4.8 9.7 0.00 0.00 0.00 85 1008.6
20260505234749 26 217 9.7 12.9 0.00 0.00 0.00 85 1008.7
20260505234246 26 259 8.0 9.7 0.00 0.00 0.00 85 1008.5
20260505233743 26 225 11.3 16.1 0.00 0.00 0.00 84 1008.2
20260505233241 26 209 12.9 17.7 0.00 0.00 0.00 84 1008.4
20260505232738 26 111 8.0 9.7 0.00 0.00 0.00 84 1008.3
20260505232235 26 225 16.1 16.1 0.00 0.00 0.00 83 1008.3
20260505231732 26 265 4.8 14.5 0.00 0.00 0.00 83 1008.4
20260505231231 26 229 9.7 11.3 0.00 0.00 0.00 83 1008.4
20260505230728 26 227 6.4 11.3 0.00 0.00 0.00 83 1008.5
20260505230225 26 198 4.8 9.7 0.00 0.00 0.00 83 1008.7
20260505225721 26 202 6.4 20.9 0.00 0.00 0.00 82 1008.5
20260505225219 26 116 8.0 12.9 0.00 0.00 0.00 82 1008.4
20260505224714 26 182 9.7 12.9 0.00 0.00 0.00 81 1008.6
20260505224212 26 218 4.8 12.9 0.00 0.00 0.00 80 1008.6
20260505223709 26 168 6.4 11.3 0.00 0.00 0.00 81 1008.5
20260505223205 26 176 8.0 14.5 0.00 0.00 0.00 81 1008.7
20260505222701 26 263 3.2 8.0 0.00 0.00 0.00 81 1008.8
20260505222157 26 220 3.2 11.3 0.00 0.00 0.00 80 1008.7
20260505221655 26 224 4.8 9.7 0.00 0.00 0.00 80 1008.6
20260505221151 26 232 9.7 9.7 0.00 0.00 0.00 80 1008.7
20260505220648 26 202 4.8 14.5 0.00 0.00 0.00 80 1008.5
20260505220146 26 250 3.2 9.7 0.00 0.00 0.00 80 1008.8
20260505215643 26 205 9.7 12.9 0.00 0.00 0.00 79 1008.7
20260505215141 27 180 3.2 19.3 0.00 0.00 0.00 79 1008.8
20260505214639 27 239 3.2 11.3 0.00 0.00 0.00 79 1008.8
20260505214136 27 214 3.2 8.0 0.00 0.00 0.00 79 1008.5
20260505213634 27 178 4.8 12.9 0.00 0.00 0.00 78 1008.6
20260505213130 27 274 4.8 6.4 0.00 0.00 0.00 79 1008.8
20260505212626 27 204 8.0 11.3 0.00 0.00 0.00 78 1008.8
20260505212124 27 222 4.8 16.1 0.00 0.00 0.00 78 1008.7
20260505211621 27 208 8.0 14.5 0.00 0.00 0.00 78 1008.9
20260505211118 27 205 3.2 9.7 0.00 0.00 0.00 78 1008.8
20260505210614 27 166 6.4 8.0 0.00 0.00 0.00 78 1008.8
20260505210111 27 40 3.2 8.0 0.00 0.00 0.00 78 1008.8
20260505205609 27 205 8.0 14.5 0.00 0.00 0.00 78 1008.8
20260505205107 27 213 12.9 16.1 0.00 0.00 0.00 78 1009.0
20260505204604 26 201 8.0 12.9 0.00 0.00 0.00 78 1009.0
20260505204101 26 95 3.2 9.7 0.00 0.00 0.00 79 1009.1
20260505203557 27 221 8.0 16.1 0.00 0.00 0.00 79 1009.4
20260505203055 27 276 6.4 16.1 0.00 0.00 0.00 78 1009.3
20260505202550 27 190 11.3 12.9 0.00 0.00 0.00 78 1009.8
20260505202047 27 240 6.4 8.0 0.00 0.00 0.00 78 1009.5
20260505201543 27 170 8.0 14.5 0.00 0.00 0.00 77 1009.5
20260505201041 27 225 3.2 11.3 0.00 0.00 0.00 78 1009.4
20260505200539 27 200 9.7 11.3 0.00 0.00 0.00 80 1009.6
20260505200036 26 182 6.4 9.7 0.00 0.00 0.00 81 1009.5
20260505195532 26 236 4.8 14.5 0.00 0.00 0.00 81 1009.6
20260505195029 26 163 4.8 9.7 0.00 0.00 0.00 82 1009.5
20260505194526 26 126 3.2 11.3 0.00 0.00 0.00 83 1009.6
20260505194021 26 259 6.4 9.7 0.00 0.00 0.00 82 1009.9
20260505193519 26 190 6.4 19.3 0.00 0.00 0.00 82 1009.9
20260505193016 26 212 6.4 8.0 0.00 0.00 0.00 83 1009.8
20260505192515 25 198 6.4 9.7 0.00 0.00 0.00 84 1010.0
20260505192013 25 197 8.0 14.5 0.00 0.00 0.00 84 1010.3
20260505191511 25 208 1.6 8.0 0.00 0.00 0.00 87 1010.2
20260505191009 25 259 4.8 11.3 0.00 0.00 0.00 87 1010.0
20260505190508 25 205 0.0 8.0 0.00 0.00 0.00 87 1010.2
20260505190004 25 183 6.4 11.3 0.00 0.00 0.00 87 1010.4
20260505185502 25 238 3.2 6.4 0.00 0.00 0.00 86 1010.4
20260505184957 25 211 3.2 8.0 0.00 0.00 0.00 85 1010.3
20260505184455 25 216 4.8 16.1 0.00 0.00 0.00 83 1010.4
20260505183951 26 217 8.0 9.7 0.00 0.00 0.00 81 1010.5
20260505183448 26 3 1.6 8.0 0.00 0.00 0.00 80 1010.5
20260505182945 26 297 6.4 8.0 0.00 0.00 0.00 80 1010.5
20260505182442 26 206 3.2 8.0 0.00 0.00 0.00 80 1010.4
20260505181938 26 206 6.4 12.9 0.00 0.00 0.00 79 1010.2
20260505181435 26 182 4.8 9.7 0.00 0.00 0.00 79 1010.1
20260505180932 26 242 3.2 8.0 0.00 0.00 0.00 79 1010.2
20260505180428 26 242 4.8 9.7 0.00 0.00 0.00 78 1010.3
20260505175925 26 212 9.7 9.7 0.00 0.00 0.00 79 1010.3
20260505175422 26 196 12.9 19.3 0.00 0.00 0.00 78 1010.3
20260505174918 26 212 6.4 9.7 0.00 0.00 0.00 79 1010.3
20260505174416 26 174 8.0 8.0 0.00 0.00 0.00 79 1010.2
20260505173912 26 285 9.7 12.9 0.00 0.00 0.00 79 1010.4
20260505173408 26 242 8.0 9.7 0.00 0.00 0.00 80 1010.7
20260505172905 26 192 9.7 14.5 0.00 0.00 0.00 79 1010.5
20260505172403 26 308 6.4 8.0 0.00 0.00 0.00 81 1010.4
20260505171902 26 257 6.4 14.5 0.00 0.00 0.00 80 1010.7
20260505171359 26 161 4.8 11.3 0.00 0.00 0.00 80 1010.3
20260505170856 26 183 9.7 16.1 0.00 0.00 0.00 80 1010.5
20260505170353 26 264 9.7 12.9 0.00 0.00 0.00 80 1010.6
20260505165848 25 158 8.0 14.5 0.00 0.00 0.00 80 1010.4
20260505165344 25 225 3.2 4.8 0.00 0.00 0.00 82 1010.7
20260505164840 25 195 6.4 6.4 0.00 0.00 0.00 81 1010.7
20260505164337 25 182 3.2 9.7 0.00 0.00 0.00 81 1010.9
20260505163835 25 93 1.6 9.7 0.00 0.00 0.00 81 1010.7
20260505163334 25 338 3.2 6.4 0.00 0.00 0.00 81 1010.9
20260505162832 25 220 4.8 6.4 0.00 0.00 0.00 81 1010.5
20260505162328 25 222 6.4 11.3 0.00 0.00 0.00 81 1010.9
20260505161825 25 221 6.4 11.3 0.00 0.00 0.00 80 1010.6
20260505161322 25 250 3.2 6.4 0.00 0.00 0.00 81 1010.7
20260505160819 25 243 8.0 9.7 0.00 0.00 0.00 80 1010.7
20260505160317 25 261 6.4 8.0 0.00 0.00 0.00 80 1010.6
20260505153256 25 167 4.8 9.7 0.00 0.00 0.00 80 1010.7
20260505152753 25 242 8.0 11.3 0.00 0.00 0.00 80 1010.5
20260505152250 25 254 4.8 8.0 0.00 0.00 0.00 80 1010.4
20260505151749 25 216 6.4 11.3 0.00 0.00 0.00 80 1010.4
20260505151247 25 154 4.8 11.3 0.00 0.00 0.00 80 1010.4
20260505150744 25 124 4.8 8.0 0.00 0.00 0.00 80 1010.5
20260505150242 25 187 6.4 14.5 0.00 0.00 0.00 80 1010.5
20260505140211 24 261 4.8 14.5 0.00 0.00 0.00 84 1010.3
20260505130135 23 173 6.4 6.4 0.00 0.00 0.00 87 1010.6
20260505124625 22 178 4.8 6.4 0.00 0.00 0.00 88 1010.1
20260505124121 22 237 6.4 9.7 0.00 0.00 0.00 88 1010.1
20260505123617 22 219 4.8 6.4 0.00 0.00 0.00 88 1010.1
20260505123114 22 173 3.2 6.4 0.00 0.00 0.00 88 1010.1
20260505122611 22 174 3.2 6.4 0.00 0.00 0.00 88 1010.2
20260505122108 22 132 3.2 4.8 0.00 0.00 0.00 88 1010.2
20260505121604 22 198 3.2 8.0 0.00 0.00 0.00 88 1010.2
20260505121101 22 224 4.8 6.4 0.00 0.00 0.00 88 1010.0
20260505120557 22 240 4.8 6.4 0.00 0.00 0.00 88 1010.1
20260505120053 22 198 4.8 4.8 0.00 0.00 0.00 88 1009.8
20260505115548 22 211 3.2 6.4 0.00 0.00 0.00 88 1009.8
20260505115046 22 203 1.6 4.8 0.00 0.00 0.00 88 1009.7
20260505114542 22 280 1.6 6.4 0.00 0.00 0.00 88 1010.0
20260505114039 22 100 3.2 4.8 0.00 0.00 0.00 88 1009.9
20260505113535 22 230 3.2 6.4 0.00 0.00 0.00 87 1010.1
20260505113032 22 251 0.0 4.8 0.00 0.00 0.00 87 1009.7
20260505112528 22 235 3.2 6.4 0.00 0.00 0.00 87 1009.8
20260505112026 22 232 4.8 6.4 0.00 0.00 0.00 87 1009.8
20260505111520 22 173 3.2 8.0 0.00 0.00 0.00 87 1009.6
20260505111016 22 175 0.0 8.0 0.00 0.00 0.00 87 1009.6
20260505110513 22 253 4.8 6.4 0.00 0.00 0.00 87 1009.6